Location: Laas
(43.4693°N, 0.3073°E)
Time: 16:05:10
(UTC+00:00)

SKYMED 2 - Pass Details

Date: 25 October 2020
Orbit: 621 x 623 km, 97.9° (Epoch: 24 November)

Event Time Altitude Azimuth Distance (km) Brightness Sun altitude
Rises 18:14:42 0° 11° (N) 2,913 6.9 -14.3°
Reaches altitude 10° 18:16:54 10° 10° (N) 2,001 6.0 -14.7°
Maximum altitude 18:21:15 77° 285° (WNW) 644 3.7 -15.5°
Drops below altitude 10° 18:25:34 10° 199° (SSW) 1,985 6.4 -16.2°
Sets 18:27:45 0° 198° (SSW) 2,886 7.3 -16.6°
